Location: Unnamed
(51.5169°N, 0.1311°W)
Time: 07:18:35
(UTC+01:00)

Vanguard 1 - Pass Details

Date: 17 August 2024
Orbit: 649 x 3825 km, 34.2° (Epoch: 16 September)

Event Time Altitude Azimuth Distance (km) Brightness Sun altitude
Rises 23:26:46 0° 238° (WSW) 3,984 13.1 -22.1°
Reaches altitude 10° 23:29:24 10° 228° (SW) 3,331 12.6 -22.2°
Enters shadow 23:35:52 31° 178° (S) 2,797 11.8 -22.7°
Exits shadow 23:48:42 10° 116° (ESE) 5,483 13.4 -23.4°
Drops below altitude 10° 23:48:50 10° 116° (ESE) 5,517 13.5 -23.4°
Sets 23:54:44 0° 108° (ESE) 7,030 14.1 -23.7°
